This demonstration page uses our WeatherBlox Daily Observations layout. Learn more.

Left ArrowRight Arrow

36.17497, -115.13722

Hourly Observations for July 13, 2017

Temp ( °F °C ) Dew Point ( °F °C ) Humidity (%) Winds ( mph kmh ) Pressure ( in mb ) Visibility ( mi km ) Precip ( " mm )
12:53 am 00:53 Clear 90 32.2 46 7.8 22 22 N N/A 29.87 1011 10 16 N/A
1:53 am 01:53 Clear 89 31.7 50 10 26 26 SW 6 9 29.87 1012 10 16 N/A
2:53 am 02:53 Clear 88 31.1 49 9.4 26 26 SW 3 6 29.87 1012 10 16 N/A
3:53 am 03:53 Clear 86 30 49 9.4 28 28 N 5 7 29.87 1012 10 16 N/A
4:53 am 04:53 Clear 85 29.4 50 10 30 30 N N/A 29.88 1012 10 16 N/A
5:53 am 05:53 Sunny 83 28.3 49 9.4 31 31 N N/A 29.90 1013 10 16 N/A
6:53 am 06:53 Sunny 86 30 50 10 29 29 N N/A 29.91 1013 10 16 N/A
7:53 am 07:53 Sunny 88 31.1 48 8.9 25 25 ESE 3 6 29.93 1014 10 16 N/A
11:53 am 11:53 Sunny 100 37.8 49 9.4 18 18 undefined N/A 29.91 1013 10 16 N/A
12:53 pm 12:53 Sunny 102 38.9 47 8.3 15 15 VRB 6 9 29.89 1012 10 16 N/A
1:53 pm 13:53 Sunny 104 40 43 6.1 12 12 ESE 8 13 29.86 1011 10 16 N/A
2:53 pm 14:53 Sunny 106 41.1 42 5.6 11 11 S 10 17 29.83 1010 10 16 N/A
3:53 pm 15:53 Sunny 106 41.1 47 8.3 14 14 SSE 14 22 29.81 1009 10 16 N/A
4:53 pm 16:53 Sunny 106 41.1 44 6.7 12 12 ESE 8 13 29.79 1009 10 16 N/A
5:53 pm 17:53 Sunny 107 41.7 41 5 11 11 SSE 13 20 29.78 1009 10 16 N/A
6:53 pm 18:53 Sunny 106 41.1 36 2.2 9 9 W 15 24 29.78 1008 10 16 N/A
7:53 pm 19:53 Sunny 103 39.4 36 2.2 10 10 W 10 17 29.79 1009 10 16 N/A
8:53 pm 20:53 Clear 101 38.3 34 1.1 10 10 WSW 9 15 29.81 1009 10 16 N/A
9:53 pm 21:53 Clear 100 37.8 33 0.6 10 10 W 9 15 29.83 1010 10 16 N/A
10:53 pm 22:53 Clear 98 36.7 36 2.2 11 11 N N/A 29.85 1011 10 16 N/A
11:53 pm 23:53 Clear 96 35.6 37 2.8 13 13 N N/A 29.85 1011 10 16 N/A

Powered by AerisWeather